FW6665 Weather Reports


Display with metric or nautical units.
time (UTC)temp
F
wind
direction
speed
MPH
gust
MPH
rain 1hr
in
rain 24hr
in
rain mn
in
humidity
%
barometer
mb
20260905224204 62 185 0.0 1.0 0.00 0.00 0.00 74 1022.8
20260905223704 62 185 0.0 1.0 0.00 0.00 0.00 73 1022.8
20260905223204 62 185 0.0 1.0 0.00 0.00 0.00 73 1022.7
20260905222704 62 185 0.0 1.0 0.00 0.00 0.00 73 1022.6
20260905222205 62 185 0.0 3.0 0.00 0.00 0.00 73 1022.6
20260905221205 62 185 0.0 3.0 0.00 0.00 0.00 73 1022.7
20260905220714 62 185 1.0 2.0 0.00 0.00 0.00 73 1022.7
20260905220205 62 183 0.0 2.0 0.00 0.00 0.00 73 1022.8
20260905215205 62 183 0.0 1.0 0.00 0.00 0.00 72 1022.7
20260905214709 62 183 0.0 1.0 0.00 0.00 0.00 72 1022.6
20260905214204 62 183 0.0 0.0 0.00 0.00 0.00 71 1022.5
20260905212704 63 183 0.0 2.0 0.00 0.00 0.00 71 1022.4
20260905212209 63 183 0.0 2.0 0.00 0.00 0.00 71 1022.4
20260905211704 63 183 0.0 1.0 0.00 0.00 0.00 71 1022.5
20260905211233 63 183 0.0 1.0 0.00 0.00 0.00 70 1022.4
20260905210204 63 183 0.0 4.0 0.00 0.00 0.00 70 1022.5
20260905205704 63 183 0.0 4.0 0.00 0.00 0.00 69 1022.5
20260905205205 64 183 1.0 2.0 0.00 0.00 0.00 69 1022.5
20260905204704 64 189 0.0 2.0 0.00 0.00 0.00 69 1022.4
20260905204205 64 189 0.0 2.0 0.00 0.00 0.00 68 1022.3
20260905203704 64 189 0.0 3.0 0.00 0.00 0.00 68 1022.3
20260905203204 64 189 0.0 3.0 0.00 0.00 0.00 68 1022.4
20260905202703 64 189 0.0 2.0 0.00 0.00 0.00 67 1022.4
20260905202204 65 189 0.0 2.0 0.00 0.00 0.00 67 1022.3
20260905201704 65 189 0.0 2.0 0.00 0.00 0.00 67 1022.4
20260905201204 65 189 0.0 2.0 0.00 0.00 0.00 66 1022.4
20260905200704 65 189 0.0 4.0 0.00 0.00 0.00 66 1022.4
20260905200204 65 188 0.0 4.0 0.00 0.00 0.00 66 1022.4
20260905195705 65 188 0.0 4.0 0.00 0.00 0.00 65 1022.5
20260905195204 66 188 1.0 3.0 0.00 0.00 0.00 65 1022.4
20260905194704 66 195 0.0 4.0 0.00 0.00 0.00 64 1022.5
20260905194204 66 162 0.0 4.0 0.00 0.00 0.00 64 1022.4
20260905193205 67 162 0.0 4.0 0.00 0.00 0.00 62 1022.3
20260905192706 67 148 0.0 4.0 0.00 0.00 0.00 62 1022.2
20260905192204 67 147 1.0 4.0 0.00 0.00 0.00 61 1022.1
20260905191704 67 141 1.0 3.0 0.00 0.00 0.00 60 1022.1
20260905191204 68 235 0.0 3.0 0.00 0.00 0.00 59 1022.0
20260905190204 68 238 0.0 1.0 0.00 0.00 0.00 55 1021.9
20260905185705 69 241 0.0 0.0 0.00 0.00 0.00 52 1021.9
20260905185203 69 241 0.0 0.0 0.00 0.00 0.00 50 1021.7
20260905184705 69 241 0.0 1.0 0.00 0.00 0.00 49 1021.7
20260905184204 70 241 0.0 1.0 0.00 0.00 0.00 49 1021.6
20260905183704 70 241 0.0 1.0 0.00 0.00 0.00 48 1021.6
20260905183204 70 241 0.0 1.0 0.00 0.00 0.00 48 1021.7
20260905182704 71 241 0.0 2.0 0.00 0.00 0.00 47 1021.7
20260905182203 71 241 0.0 2.0 0.00 0.00 0.00 47 1021.7
20260905181704 71 241 0.0 3.0 0.00 0.00 0.00 46 1021.7
20260905181204 72 241 1.0 3.0 0.00 0.00 0.00 46 1021.6
20260905180704 72 241 1.0 3.0 0.00 0.00 0.00 45 1021.7
20260905180205 73 241 0.0 3.0 0.00 0.00 0.00 44 1021.7
20260905175704 73 241 1.0 3.0 0.00 0.00 0.00 43 1021.6
20260905174204 74 241 1.0 5.0 0.00 0.00 0.00 43 1021.4
20260905172704 74 241 1.0 3.0 0.00 0.00 0.00 42 1021.4
20260905172205 74 241 1.0 3.0 0.00 0.00 0.00 42 1021.5
20260905171704 74 241 2.0 6.0 0.00 0.00 0.00 42 1021.6
20260905171204 74 240 0.0 6.0 0.00 0.00 0.00 42 1021.6
20260905170704 74 240 1.0 6.0 0.00 0.00 0.00 42 1021.6
20260905165204 75 228 2.0 4.0 0.00 0.00 0.00 42 1021.5
20260905164705 75 189 1.0 4.0 0.00 0.00 0.00 42 1021.6
20260905164204 74 176 1.0 5.0 0.00 0.00 0.00 42 1021.6
20260905163204 74 127 1.0 5.0 0.00 0.00 0.00 43 1021.5
20260905162704 74 231 2.0 6.0 0.00 0.00 0.00 42 1021.6
20260905162204 75 235 3.0 6.0 0.00 0.00 0.00 41 1021.5
20260905161705 75 237 2.0 5.0 0.00 0.00 0.00 42 1021.6
20260905161205 75 179 1.0 5.0 0.00 0.00 0.00 42 1021.5
20260905160705 75 244 0.0 5.0 0.00 0.00 0.00 43 1021.5
20260905160204 74 244 1.0 5.0 0.00 0.00 0.00 42 1021.5
20260905155204 75 231 3.0 4.0 0.00 0.00 0.00 42 1021.6
20260905154704 74 231 1.0 5.0 0.00 0.00 0.00 43 1021.5
20260905153705 74 231 2.0 7.0 0.00 0.00 0.00 43 1021.6
20260905153204 75 241 3.0 7.0 0.00 0.00 0.00 42 1021.6
20260905152704 75 185 2.0 7.0 0.00 0.00 0.00 42 1021.6
20260905152204 74 247 2.0 5.0 0.00 0.00 0.00 43 1021.6
20260905151704 74 245 0.0 6.0 0.00 0.00 0.00 44 1021.6
20260905151205 74 254 2.0 9.0 0.00 0.00 0.00 44 1021.7
20260905150705 74 257 1.0 9.0 0.00 0.00 0.00 43 1021.7
20260905150204 74 231 3.0 9.0 0.00 0.00 0.00 43 1021.9
20260905145704 74 257 2.0 5.0 0.00 0.00 0.00 43 1021.8
20260905145204 74 200 1.0 6.0 0.00 0.00 0.00 44 1021.8
20260905143704 73 243 2.0 9.0 0.00 0.00 0.00 45 1021.8
20260905143204 73 261 2.0 9.0 0.00 0.00 0.00 46 1021.9
20260905142704 73 247 4.0 7.0 0.00 0.00 0.00 46 1021.8
20260905142204 73 217 3.0 6.0 0.00 0.00 0.00 46 1021.7
20260905141704 73 228 3.0 7.0 0.00 0.00 0.00 46 1021.7
20260905140704 72 172 1.0 7.0 0.00 0.00 0.00 47 1021.7
20260905140203 72 243 2.0 7.0 0.00 0.00 0.00 48 1021.7
20260905135706 72 243 2.0 7.0 0.00 0.00 0.00 47 1021.6
20260905135204 73 226 4.0 6.0 0.00 0.00 0.00 47 1021.6
20260905133704 72 159 1.0 4.0 0.00 0.00 0.00 46 1021.6
20260905132704 71 248 2.0 4.0 0.00 0.00 0.00 50 1021.6
20260905132204 71 245 1.0 7.0 0.00 0.00 0.00 50 1021.6
20260905131704 71 244 1.0 7.0 0.00 0.00 0.00 50 1021.7
20260905131205 71 243 1.0 7.0 0.00 0.00 0.00 49 1021.7
20260905130704 71 233 2.0 7.0 0.00 0.00 0.00 49 1021.7
20260905130204 71 248 3.0 5.0 0.00 0.00 0.00 49 1021.7
20260905125704 71 252 3.0 9.0 0.00 0.00 0.00 51 1021.6
20260905125204 70 247 1.0 10.0 0.00 0.00 0.00 51 1021.5
20260905124704 71 247 2.0 10.0 0.00 0.00 0.00 50 1021.6
20260905124206 71 258 2.0 10.0 0.00 0.00 0.00 49 1021.6
20260905123704 71 257 2.0 7.0 0.00 0.00 0.00 50 1021.5
20260905123204 71 250 2.0 6.0 0.00 0.00 0.00 51 1021.5
20260905122215 70 235 2.0 7.0 0.00 0.00 0.00 52 1021.4
20260905121704 70 220 2.0 7.0 0.00 0.00 0.00 52 1021.5
20260905121204 69 240 4.0 9.0 0.00 0.00 0.00 52 1021.6
20260905120705 69 240 4.0 9.0 0.00 0.00 0.00 54 1021.5
20260905114704 68 230 2.0 7.0 0.00 0.00 0.00 55 1021.6
20260905114204 68 237 1.0 9.0 0.00 0.00 0.00 56 1021.6
20260905113705 68 237 3.0 9.0 0.00 0.00 0.00 55 1021.6
20260905112704 69 252 4.0 10.0 0.00 0.00 0.00 54 1021.6
20260905111704 69 244 4.0 6.0 0.00 0.00 0.00 54 1021.5
20260905111204 69 237 2.0 9.0 0.00 0.00 0.00 55 1021.5
20260905110704 69 244 3.0 9.0 0.00 0.00 0.00 56 1021.5
20260905110204 68 243 2.0 9.0 0.00 0.00 0.00 56 1021.6
20260905105704 68 244 4.0 10.0 0.00 0.00 0.00 56 1021.5
20260905105223 68 259 2.0 10.0 0.00 0.00 0.00 57 1021.5
20260905104704 68 189 2.0 10.0 0.00 0.00 0.00 58 1021.4
20260905104204 68 235 5.0 9.0 0.00 0.00 0.00 57 1021.4
20260905103704 67 252 2.0 9.0 0.00 0.00 0.00 57 1021.4
20260905103204 67 241 2.0 10.0 0.00 0.00 0.00 59 1021.4
20260905102704 67 262 2.0 10.0 0.00 0.00 0.00 58 1021.3
20260905102205 67 241 2.0 10.0 0.00 0.00 0.00 60 1021.5
20260905101704 67 204 3.0 9.0 0.00 0.00 0.00 60 1021.3
20260905101204 66 255 2.0 9.0 0.00 0.00 0.00 62 1021.4
20260905100709 66 245 3.0 11.0 0.00 0.00 0.00 62 1021.3
20260905100204 66 237 2.0 11.0 0.00 0.00 0.00 62 1021.3
20260905095704 66 258 3.0 11.0 0.00 0.00 0.00 61 1021.2
20260905095203 66 223 5.0 7.0 0.00 0.00 0.00 63 1021.3
20260905094727 66 254 4.0 7.0 0.00 0.00 0.00 63 1021.2
20260905094204 65 293 3.0 9.0 0.00 0.00 0.00 64 1021.1
20260905093204 65 227 3.0 9.0 0.00 0.00 0.00 67 1021.1
20260905092704 65 251 4.0 11.0 0.00 0.00 0.00 66 1021.1
20260905091704 64 250 2.0 11.0 0.00 0.00 0.00 69 1021.0
20260905090709 64 276 4.0 9.0 0.00 0.00 0.00 69 1020.9
20260905090204 64 230 2.0 9.0 0.00 0.00 0.00 70 1020.8
20260905085705 63 240 4.0 9.0 0.00 0.00 0.00 71 1020.7
20260905084704 63 259 2.0 9.0 0.00 0.00 0.00 72 1020.8
20260905084205 63 238 2.0 9.0 0.00 0.00 0.00 73 1020.9
20260905083704 62 241 4.0 11.0 0.00 0.00 0.00 73 1020.8
20260905083204 62 245 2.0 11.0 0.00 0.00 0.00 74 1020.8
20260905082704 61 248 2.0 11.0 0.00 0.00 0.00 75 1020.7
20260905082204 61 230 4.0 9.0 0.00 0.02 0.00 75 1020.7
20260905081704 61 154 2.0 9.0 0.00 0.02 0.00 76 1020.6
20260905080204 60 238 4.0 9.0 0.00 0.02 0.00 77 1020.6
20260905075705 60 227 3.0 9.0 0.00 0.02 0.00 77 1020.4
20260905075204 59 252 3.0 9.0 0.00 0.02 0.00 78 1020.4
20260905073704 58 234 3.0 11.0 0.00 0.02 0.00 79 1020.3
20260905073204 58 230 1.0 11.0 0.00 0.02 0.00 79 1020.4
20260905072704 58 238 2.0 9.0 0.00 0.02 0.00 78 1020.2
20260905072204 57 243 1.0 11.0 0.00 0.02 0.00 78 1020.2
20260905071705 57 227 4.0 11.0 0.00 0.02 0.00 78 1020.1
20260905070704 56 245 4.0 5.0 0.00 0.02 0.00 77 1020.1
20260905070204 56 169 2.0 10.0 0.00 0.02 0.00 77 1020.0
20260905065204 56 226 1.0 10.0 0.00 0.02 0.00 76 1019.9
20260905064704 56 257 3.0 4.0 0.00 0.02 0.00 75 1019.9
20260905064241 56 224 1.0 4.0 0.00 0.02 0.00 75 1019.8
20260905063705 55 226 1.0 5.0 0.00 0.02 0.00 75 1019.7
20260905062705 55 219 2.0 5.0 0.00 0.02 0.00 75 1019.6
20260905062205 55 196 1.0 7.0 0.00 0.02 0.00 75 1019.5
20260905061204 55 234 1.0 7.0 0.00 0.02 0.00 75 1019.4
20260905060205 55 237 1.0 7.0 0.00 0.02 0.00 75 1019.3
20260905055704 55 192 1.0 7.0 0.00 0.02 0.00 75 1019.3
20260905055234 55 178 1.0 7.0 0.00 0.02 0.00 75 1019.2
20260905054704 55 243 2.0 5.0 0.00 0.02 0.00 75 1019.1
20260905054204 55 244 1.0 5.0 0.00 0.02 0.00 75 1019.0
20260905053704 55 241 0.0 4.0 0.00 0.02 0.00 76 1019.0
20260905053204 55 237 0.0 4.0 0.00 0.02 0.00 76 1019.0
20260905052705 55 237 1.0 4.0 0.00 0.02 0.00 76 1019.0
20260905052205 55 227 0.0 3.0 0.00 0.02 0.00 76 1018.9
20260905051704 55 227 1.0 4.0 0.00 0.02 0.00 76 1018.8
20260905051204 55 224 0.0 4.0 0.00 0.02 0.00 76 1018.8
20260905050704 55 226 1.0 4.0 0.00 0.02 0.00 76 1018.8
20260905050204 55 224 1.0 4.0 0.00 0.02 0.00 76 1018.6
20260905045703 55 220 1.0 4.0 0.00 0.02 0.00 76 1018.7
20260905044705 55 226 1.0 4.0 0.00 0.02 0.00 77 1018.5
20260905044204 55 195 1.0 4.0 0.00 0.02 0.00 77 1018.6
20260905043210 56 212 1.0 3.0 0.00 0.02 0.00 77 1018.6
20260905041704 56 230 1.0 4.0 0.00 0.02 0.00 77 1018.4
20260905041205 56 230 1.0 4.0 0.00 0.02 0.00 77 1018.5
20260905035705 56 231 0.0 7.0 0.00 0.02 0.00 77 1018.2
20260905035204 56 227 2.0 7.0 0.00 0.02 0.00 77 1018.1
20260905033704 56 235 1.0 9.0 0.00 0.02 0.00 77 1018.1
20260905032704 56 186 2.0 5.0 0.00 0.02 0.00 77 1017.9
20260905032204 56 243 2.0 5.0 0.00 0.02 0.00 77 1017.9
20260905031204 56 241 2.0 6.0 0.00 0.02 0.00 78 1017.9
20260905030704 56 233 2.0 6.0 0.00 0.02 0.00 78 1017.9
20260905025205 56 255 1.0 6.0 0.00 0.02 0.00 78 1017.7
20260905024704 56 227 1.0 6.0 0.00 0.02 0.00 78 1017.7
20260905023704 57 237 1.0 5.0 0.00 0.02 0.00 78 1017.6
20260905023204 57 235 1.0 5.0 0.00 0.02 0.00 78 1017.5
20260905022704 57 235 1.0 5.0 0.00 0.02 0.00 78 1017.6
20260905021704 57 185 2.0 5.0 0.00 0.02 0.00 78 1017.5
20260905021205 57 250 1.0 5.0 0.00 0.02 0.00 78 1017.4
20260905020704 57 250 1.0 6.0 0.00 0.02 0.00 78 1017.5
20260905015714 57 234 1.0 6.0 0.00 0.02 0.00 78 1017.4
20260905015203 57 238 2.0 5.0 0.00 0.02 0.00 78 1017.3
20260905014704 57 238 0.0 5.0 0.00 0.02 0.00 78 1017.3
20260905014204 57 238 2.0 5.0 0.00 0.02 0.00 78 1017.2
20260905013704 57 245 2.0 5.0 0.00 0.02 0.00 79 1017.2
20260905012704 57 244 2.0 5.0 0.00 0.02 0.00 79 1017.1
20260905011704 57 224 2.0 5.0 0.00 0.02 0.00 79 1017.2
20260905011204 57 233 3.0 5.0 0.00 0.02 0.00 79 1017.1
20260905010705 57 234 2.0 5.0 0.00 0.02 0.00 78 1017.2
20260905010205 57 221 1.0 5.0 0.00 0.02 0.00 78 1017.1
20260905005705 57 251 1.0 6.0 0.00 0.02 0.00 78 1017.1
20260905005204 58 247 2.0 6.0 0.00 0.02 0.00 78 1017.2
20260905004705 58 252 1.0 5.0 0.00 0.02 0.00 78 1017.1
20260905004204 58 183 1.0 6.0 0.00 0.02 0.00 78 1017.0
20260905003704 58 196 2.0 6.0 0.00 0.02 0.00 78 1017.1
20260905003204 58 238 1.0 4.0 0.00 0.02 0.00 78 1017.0
20260905002704 58 237 1.0 5.0 0.00 0.02 0.00 78 1017.0
20260905001705 58 235 1.0 5.0 0.00 0.02 0.00 78 1017.0
20260905001204 58 235 2.0 4.0 0.00 0.02 0.00 78 1017.0
20260905000704 58 227 2.0 5.0 0.00 0.02 0.00 78 1017.0
20260905000204 58 220 1.0 5.0 0.00 0.02 0.00 78 1016.9
20260904235704 58 217 1.0 4.0 0.00 0.02 0.00 78 1016.7
20260904235205 58 214 1.0 5.0 0.00 0.02 0.00 78 1016.9
20260904234706 58 199 2.0 5.0 0.00 0.02 0.00 78 1016.7
20260904234203 59 243 1.0 5.0 0.00 0.02 0.00 78 1016.7
20260904233204 59 250 2.0 5.0 0.00 0.02 0.00 77 1016.6
20260904232703 59 248 1.0 5.0 0.00 0.02 0.00 77 1016.7
20260904232204 59 248 1.0 5.0 0.00 0.02 0.00 77 1016.8
20260904231704 59 251 1.0 5.0 0.00 0.02 0.00 77 1016.6
20260904230704 59 238 1.0 5.0 0.00 0.02 0.00 77 1016.6
20260904230204 59 244 2.0 4.0 0.00 0.02 0.02 77 1016.5
20260904225704 59 243 1.0 9.0 0.00 0.02 0.02 77 1016.4
20260904225204 59 243 1.0 9.0 0.00 0.02 0.02 77 1016.4
20260904224704 60 240 1.0 9.0 0.00 0.02 0.02 77 1016.4